Погода в Давид-Городке

Беларусь     52°03′27″N   27°12′41″E
темп.,
°C
ветер,
м/с
пор.,
м/с
влажн.,
%
обл.,
%
осадки,
мм/ч
давл.,
гПа
погр.,
м
19 января, ср
ср1900:00−4сз411815 0.0 1028476
03:00−5зсз378873 0.0 1028205
06:00−4зюз3888100 0.0 1026241
09:00−3зюз4994100 0.0 1025287
12:00−1зюз41083100 0.0 1024449
15:00−1зюз51089100 0.0 1021530
18:00−1зюз4993100 0.1 1019463
21:000зюз4990100 0.1 1018452
20 января, чт
чт2000:000юз4891100 0.0 1015385
03:00−1ююз41095100 0.0 1013333
06:00−1ююз51278100 0.0 1009398
09:00−2юз71577100 0.0 1006700
12:000юз71584100 0.0 1004942
15:00+1зюз81480100 0.4 10031461
18:00−1зюз613625 0.1 1003921
21:00−2юз61178100 0.1 1003930
21 января, пт
пт2100:00−3зюз6127735 0.1 1003795
03:00−3зюз71378100 0.2 1003983
06:00−3зюз81486100 0.6 10021084
09:00−4зюз91992100 1.8 10011275
12:00−2зюз91690100 1.7 10001127
15:00−1з71395100 3.6 10001023
18:00−1зсз81486100 1.9 10021289
21:00−2з91589100 3.3 10031121
22 января, сб
сб2200:00−3з71294100 0.6 1004928
03:00−3зсз51190100 0.9 1005779
06:00−4зсз61194100 0.3 1005787
09:00−4зсз5993100 0.6 1007611
12:00−4сз4891100 0.1 1009643
15:00−4ссз5890100 0.5 1011712
18:00−5ссз5109497 0.3 1014673
21:00−6ссз51191100 0.4 1017615
23 января, вс
вс2300:00−8сз389479 0.1 1019249
03:00−6ссз389596 0.1 1020438
06:00−7с379491 0.2 1021433
09:00−7ссв489397 0.3 1023443
12:00−7ссв479096 0.0 1026382
15:00−5ссв358798 0.1 1027484
18:00−7ссв369598 0.1 1029229
21:00−6ссв3694100 0.2 1032291